Flag for Germany Weather past 2 weeks in Bad Mergentheim, Baden-Württemberg, Germany

Now
55 °F

Cool.


Feels Like: 55 °F
Forecast: 62 / 97 °F
Wind: 3 mph from Northeast

Location: Niederstetten

Current Time: Aug 5, 2015 at 5:13:55 AM

Latest Report: Aug 5, 2015 at 4:20 AM


Visibility: N/A

Pressure: 30.15 "Hg

Humidity: 94%

Dew point: 54 °F

Location of Bad MergentheimLocation

Historic Weather in Bad Mergentheim — Graph

°F

Bad Mergentheim temperature yesterday

Maximum temperature yesterday: 86 °F (at 11:20 AM)
Minimum temperature yesterday: 64 °F (at 5:20 AM)
Average temperature yesterday: 72 °F

Past Weeks' High & Low Weather Summary

 TemperatureHumidityPressure
High93 °F (Jul 22, 4:20 PM)94% (Jul 23, 6:20 AM)30.15 "Hg (Jul 23, 6:20 AM)
Low45 °F (Jul 31, 6:20 AM)25% (Aug 2, 4:20 PM)29.71 "Hg (Jul 25, 12:20 AM)
Average67 °F57%29.96 "Hg
* Reported Jul 21 3:20 AM — Aug 5 3:20 AM, Bad Mergentheim, Weather by CustomWeather, © 2015

Note: Actual official high and low records may vary slightly from our data, if they occured in-between our weather recording intervals... More about our weather records

Advertising

Bad Mergentheim weather history for previous 24 hours

 ConditionsComfort  
Time TempWeatherWind HumidityBarometerVisibility
3:20 AM
Wed, Aug 5
57 °FPassing clouds.3 mph88%30.15 "HgN/A
2:20 AM61 °FPassing clouds.2 mph83%30.12 "HgN/A
1:20 AM64 °FPassing clouds.3 mph83%30.12 "HgN/A
12:20 AM64 °FPartly cloudy.7 mph88%30.12 "HgN/A
11:20 PM
Tue, Aug 4
64 °FPassing clouds.5 mph88%30.12 "HgN/A
10:20 PM66 °FPassing clouds.7 mph83%30.09 "HgN/A
9:20 PM66 °FScattered clouds.12 mph78%30.09 "HgN/A
8:20 PM70 °FScattered clouds.10 mph69%30.07 "HgN/A
7:20 PM70 °FPartly sunny.8 mph69%30.07 "HgN/A
6:20 PM70 °FPartly sunny.14 mph64%30.07 "HgN/A
5:20 PM68 °FBroken clouds.12 mph69%30.04 "HgN/A
4:20 PM66 °FBroken clouds.13 mph73%30.04 "HgN/A
3:20 PM77 °FPartly sunny.18 mph47%30.01 "HgN/A
2:20 PM81 °FBroken clouds.16 mph45%29.98 "HgN/A
1:20 PM82 °FPartly sunny.18 mph37%29.98 "HgN/A
12:20 PM82 °FPartly sunny.20 mph37%29.95 "HgN/A
11:20 AM86 °FPartly sunny.12 mph35%29.95 "HgN/A
10:20 AM82 °FPartly sunny.10 mph37%29.95 "HgN/A
9:20 AM79 °FScattered clouds.10 mph42%29.95 "HgN/A
8:20 AM75 °FScattered clouds.8 mph50%29.95 "HgN/A
7:20 AM70 °FPassing clouds.7 mph60%29.98 "HgN/A
6:20 AM66 °FPassing clouds.7 mph64%29.98 "HgN/A
5:20 AM64 °FPassing clouds.8 mph68%29.98 "HgN/A
Weather by CustomWeather, © 2015

See weather overviewHow to use our weather pages